EJU110 EHAM-LFPG

Flight info

Callsign EJU110
Flight time 0h 49m
Altitude 29000
Route WOODY N872 DENOX DCT SISGA DCT DELOM DCT MOPIL
Aircraft A20N/M-SDE2E3FGHIRWXY/LB1

Departure

Time 2026-05-07 19:23
Airport Amsterdam Airport Schiphol (EHAM)

Arrival

Time 2026-05-07 20:12
Airport Charles de Gaulle International Airport (LFPG)
Time Latitude Longitude Altitude Speed Heading
2026-05-07 18:55 52.30987 4.75353 2 ft 0 kts 148°
2026-05-07 19:10 52.30986 4.75354 2 ft 0 kts 148°
2026-05-07 19:11 52.30985 4.75355 2 ft 0 kts 148°
2026-05-07 19:12 52.30988 4.75352 2 ft 3 kts 148°
2026-05-07 19:12 52.31011 4.75331 3 ft 4 kts 142°
2026-05-07 19:12 52.31019 4.75307 2 ft 4 kts 87°
2026-05-07 19:13 52.31016 4.75286 2 ft 0 kts 70°
2026-05-07 19:15 52.31034 4.75317 2 ft 11 kts 33°
2026-05-07 19:16 52.31104 4.75409 2 ft 13 kts 46°
2026-05-07 19:16 52.31178 4.75465 2 ft 12 kts 358°
2026-05-07 19:16 52.31258 4.75456 2 ft 12 kts 357°
2026-05-07 19:16 52.31321 4.75451 2 ft 7 kts 357°
2026-05-07 19:17 52.31368 4.75447 2 ft 6 kts 356°
2026-05-07 19:17 52.31440 4.75440 2 ft 16 kts 356°
2026-05-07 19:17 52.31510 4.75343 2 ft 13 kts 272°
2026-05-07 19:17 52.31502 4.75199 2 ft 16 kts 269°
2026-05-07 19:18 52.31496 4.74994 2 ft 18 kts 267°
2026-05-07 19:18 52.31488 4.74747 2 ft 23 kts 267°
2026-05-07 19:18 52.31479 4.74484 2 ft 23 kts 268°
2026-05-07 19:18 52.31461 4.74233 4 ft 22 kts 249°
2026-05-07 19:19 52.31352 4.74138 2 ft 20 kts 178°
2026-05-07 19:19 52.31233 4.74123 2 ft 17 kts 183°
2026-05-07 19:19 52.31117 4.74111 2 ft 16 kts 183°
2026-05-07 19:19 52.31003 4.74101 2 ft 16 kts 183°
2026-05-07 19:20 52.30893 4.74090 2 ft 16 kts 182°
2026-05-07 19:20 52.30786 4.74084 2 ft 15 kts 182°
2026-05-07 19:20 52.30681 4.74074 2 ft 15 kts 183°
2026-05-07 19:20 52.30582 4.74067 2 ft 14 kts 184°
2026-05-07 19:21 52.30489 4.74056 2 ft 13 kts 184°
2026-05-07 19:21 52.30398 4.74047 2 ft 13 kts 184°
2026-05-07 19:21 52.30320 4.74005 2 ft 13 kts 204°
2026-05-07 19:21 52.30236 4.73935 2 ft 13 kts 217°
2026-05-07 19:22 52.30188 4.73825 1 ft 12 kts 269°
2026-05-07 19:22 52.30234 4.73742 0 ft 9 kts 352°
2026-05-07 19:22 52.30269 4.73743 -1 ft 0 kts
2026-05-07 19:22 52.30270 4.73744 -1 ft 1 kts
2026-05-07 19:23 52.30476 4.73767 0 ft 65 kts
2026-05-07 19:23 52.31143 4.73826 2 ft 127 kts
2026-05-07 19:23 52.32196 4.73924 160 ft 160 kts
2026-05-07 19:23 52.33274 4.74047 855 ft 152 kts
2026-05-07 19:24 52.34317 4.74521 1378 ft 167 kts 24°
2026-05-07 19:24 52.35463 4.75300 1720 ft 191 kts 25°
2026-05-07 19:24 52.36727 4.76265 2110 ft 207 kts 35°
2026-05-07 19:24 52.37591 4.78152 2590 ft 217 kts 78°
2026-05-07 19:25 52.37519 4.80601 3397 ft 219 kts 105°
2026-05-07 19:25 52.36899 4.82872 4130 ft 223 kts 128°
2026-05-07 19:25 52.35713 4.84524 4894 ft 225 kts 156°
2026-05-07 19:25 52.34188 4.85089 5627 ft 226 kts 178°
2026-05-07 19:26 52.32622 4.85089 6467 ft 226 kts 182°
2026-05-07 19:26 52.31046 4.85004 7198 ft 229 kts 183°
2026-05-07 19:26 52.29438 4.84925 7894 ft 234 kts 182°
2026-05-07 19:26 52.27796 4.84863 8640 ft 237 kts 182°
2026-05-07 19:27 52.26142 4.84814 9413 ft 240 kts 181°
2026-05-07 19:27 52.24478 4.84771 10121 ft 244 kts 181°
2026-05-07 19:27 52.22763 4.84731 10770 ft 249 kts 181°
2026-05-07 19:27 52.21021 4.84692 11483 ft 251 kts 181°
2026-05-07 19:28 52.19266 4.84655 12218 ft 253 kts 182°
2026-05-07 19:28 52.17477 4.84620 12941 ft 257 kts 182°
2026-05-07 19:28 52.15646 4.84585 13283 ft 278 kts 182°
2026-05-07 19:28 52.13628 4.84539 13591 ft 301 kts 182°
2026-05-07 19:29 52.11461 4.84490 13898 ft 323 kts 182°
2026-05-07 19:29 52.09145 4.84439 14174 ft 343 kts 182°
2026-05-07 19:29 52.06689 4.84388 14460 ft 362 kts 182°
2026-05-07 19:29 52.04125 4.84311 14941 ft 373 kts 184°
2026-05-07 19:30 52.01547 4.83634 15605 ft 377 kts 198°
2026-05-07 19:30 51.99104 4.82045 16335 ft 380 kts 205°
2026-05-07 19:30 51.96705 4.80182 17062 ft 384 kts 207°
2026-05-07 19:30 51.94292 4.78262 17753 ft 388 kts 207°
2026-05-07 19:31 51.91852 4.76327 18426 ft 393 kts 207°
2026-05-07 19:31 51.89385 4.74383 19015 ft 397 kts 207°
2026-05-07 19:31 51.86889 4.72424 19632 ft 399 kts 207°
2026-05-07 19:31 51.84383 4.70464 20249 ft 402 kts 207°
2026-05-07 19:32 51.81850 4.68487 20864 ft 405 kts 207°
2026-05-07 19:32 51.79304 4.66504 21477 ft 408 kts 207°
2026-05-07 19:32 51.76741 4.64511 22074 ft 411 kts 207°
2026-05-07 19:32 51.74155 4.62502 22646 ft 414 kts 207°
2026-05-07 19:33 51.71556 4.60487 23206 ft 416 kts 207°
2026-05-07 19:33 51.68933 4.58455 23748 ft 419 kts 207°
2026-05-07 19:33 51.66302 4.56420 24194 ft 422 kts 207°
2026-05-07 19:33 51.63643 4.54366 24632 ft 425 kts 207°
2026-05-07 19:34 51.60974 4.52307 25070 ft 427 kts 207°
2026-05-07 19:34 51.58286 4.50236 25503 ft 430 kts 207°
2026-05-07 19:34 51.55581 4.48154 25915 ft 432 kts 207°
2026-05-07 19:34 51.52862 4.46065 26342 ft 434 kts 207°
2026-05-07 19:35 51.50130 4.43969 26759 ft 437 kts 207°
2026-05-07 19:35 51.47379 4.41861 27140 ft 439 kts 207°
2026-05-07 19:35 51.44615 4.39746 27521 ft 441 kts 207°
2026-05-07 19:35 51.41834 4.37619 27902 ft 444 kts 207°
2026-05-07 19:36 51.39044 4.35491 28321 ft 445 kts 207°
2026-05-07 19:36 51.36252 4.33366 28839 ft 444 kts 207°
2026-05-07 19:36 51.34367 4.31933 29101 ft 445 kts 207°
2026-05-07 19:36 51.31574 4.29817 29126 ft 443 kts 207°
2026-05-07 19:37 51.25686 4.26852 29071 ft 447 kts 192°
2026-05-07 19:37 51.19482 4.25718 29075 ft 450 kts 188°
2026-05-07 19:38 51.13288 4.24809 29076 ft 450 kts 188°
2026-05-07 19:38 51.07053 4.23905 29075 ft 450 kts 188°
2026-05-07 19:39 51.00817 4.23002 29076 ft 450 kts 188°
2026-05-07 19:39 50.94585 4.22102 29076 ft 450 kts 188°
2026-05-07 19:40 50.88348 4.21203 29077 ft 450 kts 188°
2026-05-07 19:40 50.82111 4.20306 29077 ft 450 kts 188°
2026-05-07 19:41 50.75874 4.19412 29076 ft 450 kts 188°
2026-05-07 19:41 50.69633 4.18520 29077 ft 451 kts 188°
2026-05-07 19:42 50.63387 4.17629 29077 ft 451 kts 188°
2026-05-07 19:42 50.57143 4.16742 29064 ft 451 kts 188°
2026-05-07 19:43 50.50897 4.15855 29075 ft 451 kts 187°
2026-05-07 19:43 50.44645 4.14971 29075 ft 451 kts 187°
2026-05-07 19:44 50.38402 4.14090 29076 ft 451 kts 187°
2026-05-07 19:44 50.32153 4.13211 29074 ft 451 kts 187°
2026-05-07 19:45 50.25904 4.12334 29076 ft 451 kts 187°
2026-05-07 19:45 50.19672 4.11462 28505 ft 446 kts 187°
2026-05-07 19:46 50.16596 4.11034 27986 ft 441 kts 187°
2026-05-07 19:46 50.13547 4.10680 27351 ft 439 kts 185°
2026-05-07 19:46 50.10476 4.10432 26423 ft 444 kts 185°
2026-05-07 19:46 50.07408 4.10212 26047 ft 436 kts 185°
2026-05-07 19:47 50.04410 4.09999 25688 ft 428 kts 185°
2026-05-07 19:47 50.01452 4.09786 25209 ft 423 kts 185°
2026-05-07 19:47 49.98520 4.09571 24703 ft 420 kts 185°
2026-05-07 19:47 49.95620 4.09096 24258 ft 424 kts 192°
2026-05-07 19:48 49.92728 4.07833 23836 ft 440 kts 203°
2026-05-07 19:48 49.89971 4.05734 22968 ft 442 kts 211°
2026-05-07 19:48 49.87350 4.03313 22547 ft 433 kts 213°
2026-05-07 19:48 49.84794 4.00877 22277 ft 432 kts 213°
2026-05-07 19:49 49.82239 3.98434 21874 ft 430 kts 213°
2026-05-07 19:49 49.79704 3.96012 21158 ft 427 kts 213°
2026-05-07 19:49 49.77191 3.93616 20528 ft 423 kts 213°
2026-05-07 19:49 49.74694 3.91240 19896 ft 419 kts 213°
2026-05-07 19:50 49.72223 3.88892 19253 ft 415 kts 213°
2026-05-07 19:50 49.69770 3.86563 18628 ft 412 kts 213°
2026-05-07 19:50 49.67337 3.84257 17951 ft 409 kts 213°
2026-05-07 19:50 49.64926 3.81975 17274 ft 404 kts 213°
2026-05-07 19:51 49.62541 3.79720 16627 ft 400 kts 213°
2026-05-07 19:51 49.60178 3.77488 15967 ft 397 kts 213°
2026-05-07 19:51 49.57836 3.75278 15373 ft 393 kts 212°
2026-05-07 19:51 49.55511 3.73087 15105 ft 391 kts 212°
2026-05-07 19:52 49.53239 3.70950 15063 ft 377 kts 212°
2026-05-07 19:52 49.51003 3.68847 15055 ft 386 kts 212°
2026-05-07 19:52 49.48702 3.66684 15054 ft 390 kts 212°
2026-05-07 19:52 49.46346 3.64473 15052 ft 391 kts 212°
2026-05-07 19:53 49.44032 3.62303 15049 ft 383 kts 213°
2026-05-07 19:53 49.41903 3.60052 15056 ft 362 kts 219°
2026-05-07 19:53 49.40122 3.57481 15058 ft 342 kts 230°
2026-05-07 19:53 49.38759 3.54580 14861 ft 330 kts 239°
2026-05-07 19:54 49.37740 3.51472 14559 ft 323 kts 247°
2026-05-07 19:54 49.36923 3.48216 13752 ft 332 kts 250°
2026-05-07 19:54 49.36165 3.44801 12740 ft 344 kts 251°
2026-05-07 19:54 49.35423 3.41276 11809 ft 348 kts 252°
2026-05-07 19:55 49.34704 3.37784 11280 ft 337 kts 252°
2026-05-07 19:55 49.34031 3.34486 11092 ft 319 kts 252°
2026-05-07 19:55 49.33348 3.31138 11051 ft 345 kts 252°
2026-05-07 19:55 49.32589 3.27416 11048 ft 376 kts 252°
2026-05-07 19:56 49.31797 3.23530 11048 ft 382 kts 252°
2026-05-07 19:56 49.31013 3.19679 11055 ft 376 kts 252°
2026-05-07 19:56 49.30236 3.15868 11056 ft 375 kts 252°
2026-05-07 19:56 49.29458 3.12062 11056 ft 374 kts 252°
2026-05-07 19:57 49.28678 3.08257 11058 ft 374 kts 252°
2026-05-07 19:57 49.27897 3.04453 11060 ft 374 kts 252°
2026-05-07 19:57 49.27116 3.00652 11061 ft 374 kts 252°
2026-05-07 19:57 49.26334 2.96861 11067 ft 374 kts 252°
2026-05-07 19:58 49.25550 2.93063 11056 ft 372 kts 252°
2026-05-07 19:58 49.24771 2.89294 11055 ft 372 kts 252°
2026-05-07 19:58 49.23990 2.85527 11057 ft 371 kts 252°
2026-05-07 19:58 49.23219 2.81811 11062 ft 371 kts 252°
2026-05-07 19:59 49.22434 2.78041 11064 ft 358 kts 252°
2026-05-07 19:59 49.21699 2.74509 11019 ft 339 kts 252°
2026-05-07 19:59 49.20997 2.71143 10842 ft 326 kts 252°
2026-05-07 19:59 49.20328 2.67948 10681 ft 314 kts 252°
2026-05-07 20:00 49.19668 2.64792 10513 ft 302 kts 252°
2026-05-07 20:00 49.19045 2.61823 10306 ft 293 kts 252°
2026-05-07 20:00 49.18429 2.58850 10062 ft 286 kts 254°
2026-05-07 20:00 49.18095 2.55932 9808 ft 281 kts 265°
2026-05-07 20:01 49.17990 2.52963 9544 ft 279 kts 267°
2026-05-07 20:01 49.17930 2.49992 9201 ft 280 kts 268°
2026-05-07 20:01 49.17873 2.47027 8808 ft 279 kts 268°
2026-05-07 20:01 49.17815 2.44077 8417 ft 277 kts 268°
2026-05-07 20:02 49.17752 2.41089 7913 ft 279 kts 268°
2026-05-07 20:02 49.17689 2.38154 7408 ft 281 kts 268°
2026-05-07 20:02 49.17637 2.35164 6936 ft 281 kts 268°
2026-05-07 20:02 49.17590 2.32178 6683 ft 274 kts 269°
2026-05-07 20:03 49.17547 2.29341 6438 ft 268 kts 269°
2026-05-07 20:03 49.17502 2.26500 6179 ft 267 kts 269°
2026-05-07 20:03 49.17457 2.23619 5916 ft 268 kts 269°
2026-05-07 20:03 49.17411 2.20782 5661 ft 267 kts 269°
2026-05-07 20:04 49.17365 2.17986 5404 ft 267 kts 269°
2026-05-07 20:04 49.17317 2.15103 5199 ft 268 kts 269°
2026-05-07 20:04 49.17221 2.12262 5074 ft 268 kts 259°
2026-05-07 20:04 49.16486 2.09683 4965 ft 267 kts 232°
2026-05-07 20:05 49.15051 2.07958 4864 ft 265 kts 202°
2026-05-07 20:05 49.13257 2.07491 4782 ft 264 kts 174°
2026-05-07 20:05 49.11459 2.08065 4704 ft 265 kts 163°
2026-05-07 20:05 49.09696 2.08900 4605 ft 265 kts 162°
2026-05-07 20:06 49.07976 2.09739 4495 ft 253 kts 162°
2026-05-07 20:06 49.06342 2.10548 4395 ft 241 kts 159°
2026-05-07 20:06 49.04969 2.11850 4233 ft 231 kts 133°
2026-05-07 20:06 49.03990 2.13764 4022 ft 227 kts 123°
2026-05-07 20:07 49.03133 2.15789 3995 ft 229 kts 122°
2026-05-07 20:07 49.02282 2.17845 3993 ft 230 kts 122°
2026-05-07 20:07 49.01435 2.19910 3985 ft 230 kts 118°
2026-05-07 20:07 49.00953 2.22194 4021 ft 225 kts 97°
2026-05-07 20:08 49.00956 2.24513 3998 ft 215 kts 85°
2026-05-07 20:08 49.01115 2.26729 3819 ft 206 kts 84°
2026-05-07 20:08 49.01232 2.28867 3531 ft 200 kts 86°
2026-05-07 20:08 49.01334 2.30933 3242 ft 189 kts 86°
2026-05-07 20:09 49.01438 2.32886 2957 ft 182 kts 85°
2026-05-07 20:09 49.01541 2.34806 2715 ft 182 kts 85°
2026-05-07 20:09 49.01641 2.36719 2461 ft 181 kts 85°
2026-05-07 20:10 49.01842 2.40518 1971 ft 177 kts 85°
2026-05-07 20:10 49.01937 2.42315 1788 ft 160 kts 85°
2026-05-07 20:10 49.02024 2.43942 1528 ft 147 kts 85°
2026-05-07 20:10 49.02102 2.45423 1337 ft 137 kts 85°
2026-05-07 20:11 49.02177 2.46858 1154 ft 135 kts 85°
2026-05-07 20:11 49.02254 2.48293 952 ft 136 kts 85°
2026-05-07 20:11 49.02330 2.49704 750 ft 132 kts 85°
2026-05-07 20:11 49.02404 2.51090 584 ft 131 kts 84°
2026-05-07 20:12 49.02476 2.52473 408 ft 131 kts 84°
2026-05-07 20:12 49.02543 2.53770 365 ft 106 kts 85°
2026-05-07 20:12 49.02591 2.54615 355 ft 60 kts 85°
2026-05-07 20:12 49.02597 2.55138 360 ft 29 kts 99°
2026-05-07 20:13 49.02531 2.55415 364 ft 28 kts 115°
2026-05-07 20:13 49.02487 2.55562 359 ft 9 kts 110°
2026-05-07 20:13 49.02473 2.55646 359 ft 8 kts 103°
2026-05-07 20:13 49.02474 2.55720 357 ft 9 kts 84°
2026-05-07 20:14 49.02475 2.55885 362 ft 17 kts 106°
2026-05-07 20:14 49.02393 2.55967 360 ft 11 kts 174°
2026-05-07 20:14 49.02316 2.55976 357 ft 11 kts 180°
2026-05-07 20:14 49.02233 2.55980 362 ft 14 kts 177°
2026-05-07 20:15 49.02108 2.55955 363 ft 19 kts 224°
2026-05-07 20:15 49.02077 2.55742 364 ft 27 kts 265°
2026-05-07 20:15 49.02061 2.55452 362 ft 27 kts 265°
2026-05-07 20:15 49.02046 2.55165 365 ft 27 kts 266°
2026-05-07 20:16 49.02009 2.54900 363 ft 24 kts 234°
2026-05-07 20:16 49.01868 2.54859 363 ft 20 kts 181°
2026-05-07 20:16 49.01778 2.54861 357 ft 19 kts 174°
2026-05-07 20:16 49.01646 2.54879 357 ft 19 kts 174°
2026-05-07 20:17 49.01521 2.54894 360 ft 4 kts 175°
2026-05-07 20:17 49.01422 2.54914 357 ft 21 kts 168°
2026-05-07 20:17 49.01281 2.54968 357 ft 21 kts 165°
2026-05-07 20:17 49.01122 2.55037 364 ft 24 kts 165°
2026-05-07 20:18 49.00961 2.55105 360 ft 24 kts 164°
2026-05-07 20:18 49.00801 2.55175 362 ft 24 kts 163°
2026-05-07 20:18 49.00707 2.55296 357 ft 17 kts 84°
2026-05-07 20:18 49.00726 2.55468 365 ft 18 kts 82°
2026-05-07 20:19 49.00744 2.55704 360 ft 26 kts 82°
2026-05-07 20:19 49.00770 2.55972 360 ft 26 kts 81°
2026-05-07 20:19 49.00793 2.56231 364 ft 23 kts 82°
2026-05-07 20:19 49.00764 2.56434 361 ft 18 kts 154°
2026-05-07 20:20 49.00654 2.56478 357 ft 15 kts 157°
2026-05-07 20:20 49.00630 2.56583 359 ft 10 kts 75°
2026-05-07 20:20 49.00637 2.56680 363 ft 9 kts 84°
2026-05-07 20:20 49.00643 2.56770 357 ft 7 kts 84°
2026-05-07 20:21 49.00647 2.56840 357 ft 6 kts 86°
2026-05-07 20:21 49.00640 2.56874 360 ft 2 kts 141°
2026-05-07 20:21 49.00610 2.56861 357 ft 4 kts 209°
2026-05-07 20:21 49.00586 2.56840 362 ft 3 kts 211°
2026-05-07 20:22 49.00569 2.56825 362 ft 2 kts 211°
2026-05-07 20:22 49.00557 2.56813 362 ft 2 kts 212°
2026-05-07 20:22 49.00556 2.56812 362 ft 0 kts 212°
2026-05-07 20:23 49.00555 2.56803 361 ft 0 kts 168°